Location: *
(28.3744°N, 81.5492°W)
Time: 04:25:12
(UTC+00:00)

FUSE - Pass Details

Date: 15 June 2025
Orbit: 737 x 752 km, 25.0° (Epoch: 11 July)

Event Time Altitude Azimuth Distance (km) Brightness Sun altitude
Rises 00:54:40 0° 263° (W) 3,172 8.1 -6.6°
Reaches altitude 10° 00:57:10 10° 260° (W) 2,246 7.2 -7.0°
Maximum altitude 01:02:24 61° 181° (S) 835 4.1 -8.0°
Drops below altitude 10° 01:07:38 10° 101° (E) 2,236 5.8 -9.0°
Enters shadow 01:07:49 - 101° (E) 2,305 5.9 -9.0°
